Total_Precipitation_Accumulation
1.63 1.78 1.89 1.96 1.93 1.79 1.82 1.89 1.78 1.52 1.34 1.19 1.08 0.99 0.98 1.03 1.32 1.28 1.11 1.08 0.98 0.92 0.86 0.84 0.83 0.84 0.96 1.14 1.33 1.49 1.62 1.63 1.65 1.72 1.75 1.72 1.73 1.77
1.60 1.74 1.75 1.78 1.81 1.72 1.71 1.84 1.82 1.61 1.37 1.18 1.05 1.02 1.10 1.07 1.24 1.13 1.21 1.29 1.02 0.90 0.84 0.83 0.77 0.70 0.65 0.70 0.83 0.96 1.06 1.11 1.21 1.29 1.36 1.37 1.35 1.37
1.11 1.25 1.46 1.64 1.69 1.69 1.74 1.80 1.84 1.70 1.45 1.31 1.08 1.09 1.24 1.21 1.20 1.13 1.21 1.26 1.06 0.95 0.80 0.75 0.75 0.70 0.67 0.63 0.63 0.69 0.78 0.83 0.91 0.98 1.05 1.12 1.12 1.13
0.92 0.93 1.03 1.27 1.44 1.56 1.63 1.65 1.72 1.70 1.56 1.54 1.45 1.24 1.21 1.20 1.32 1.38 1.31 1.27 1.24 1.22 1.09 0.87 0.78 0.73 0.70 0.66 0.60 0.57 0.59 0.64 0.70 0.75 0.78 0.88 1.00 1.03
0.85 0.86 0.92 1.02 1.19 1.28 1.38 1.49 1.57 1.68 1.67 1.51 1.56 1.49 1.28 1.25 1.29 1.37 1.42 1.51 1.39 1.34 1.40 1.22 1.00 0.89 0.81 0.75 0.67 0.62 0.60 0.62 0.65 0.70 0.73 0.77 0.80 0.85
0.82 0.89 0.91 0.92 1.05 1.26 1.38 1.45 1.49 1.60 1.71 1.66 1.60 1.57 1.40 1.33 1.34 1.36 1.49 1.58 1.59 1.39 1.30 1.25 1.19 1.06 0.94 0.85 0.77 0.73 0.71 0.69 0.70 0.71 0.73 0.80 0.83 0.81
0.71 0.72 0.80 0.87 0.91 1.06 1.22 1.46 1.48 1.60 1.67 1.74 1.68 1.53 1.40 1.33 1.29 1.30 1.39 1.58 1.63 1.60 1.50 1.32 1.20 1.03 0.92 0.89 0.88 0.87 0.82 0.77 0.78 0.83 0.86 0.87 0.89 0.90
0.70 0.72 0.72 0.74 0.77 0.81 0.84 1.09 1.29 1.42 1.53 1.56 1.62 1.51 1.39 1.33 1.40 1.41 1.37 1.43 1.53 1.54 1.41 1.46 1.42 1.23 1.07 0.95 1.02 1.08 1.05 0.99 0.90 0.86 0.90 0.95 0.97 0.99
0.64 0.73 0.78 0.76 0.82 0.90 0.87 0.90 1.00 1.07 1.20 1.33 1.38 1.35 1.35 1.30 1.38 1.42 1.40 1.34 1.27 1.36 1.34 1.40 1.45 1.34 1.20 1.09 1.09 1.06 1.05 1.02 0.96 0.88 0.83 0.85 0.90 0.98
0.65 0.65 0.77 0.83 0.90 1.06 1.04 1.09 1.02 0.93 0.94 0.99 1.13 1.21 1.17 1.27 1.35 1.52 1.58 1.46 1.35 1.37 1.36 1.28 1.25 1.22 1.14 1.13 1.14 1.00 0.94 0.94 0.92 0.87 0.81 0.77 0.78 0.83
0.63 0.65 0.77 0.87 1.04 1.15 1.17 1.18 1.07 0.98 1.02 1.11 1.19 1.26 1.28 1.34 1.40 1.47 1.53 1.51 1.42 1.39 1.32 1.19 1.11 1.12 1.12 1.09 1.06 1.07 1.00 0.95 0.92 0.89 0.87 0.84 0.86 0.95
0.69 0.68 0.90 0.91 1.00 1.05 1.10 1.22 1.23 1.10 1.03 1.05 1.10 1.13 1.12 1.22 1.42 1.43 1.53 1.61 1.48 1.40 1.30 1.18 1.14 1.23 1.29 1.14 1.01 0.98 0.95 1.00 1.00 0.97 0.96 0.95 0.99 0.96
0.66 0.69 0.67 0.80 0.81 0.91 1.02 1.09 1.31 1.19 1.12 1.12 1.10 1.01 0.97 1.03 1.16 1.33 1.47 1.55 1.49 1.28 1.17 1.17 1.17 1.20 1.18 1.10 1.03 1.00 0.98 0.94 0.95 0.95 0.97 1.02 1.07 1.01
0.51 0.61 0.60 0.69 0.73 0.79 0.81 0.98 1.16 1.12 1.06 1.13 1.14 1.07 0.98 0.97 1.00 1.06 1.22 1.30 1.27 1.23 1.18 1.13 1.10 1.08 1.06 0.98 0.95 0.99 1.02 0.98 0.94 0.94 0.94 1.07 1.11 1.18
0.36 0.51 0.57 0.65 0.63 0.62 0.74 0.93 0.98 1.02 1.15 1.12 1.13 1.07 0.98 0.95 0.89 0.93 1.03 1.10 1.08 1.06 1.07 1.08 1.13 1.11 1.08 0.99 0.88 0.84 0.94 1.02 0.98 0.97 0.98 1.00 0.97 1.01
0.35 0.49 0.61 0.67 0.64 0.63 0.70 0.82 0.88 1.01 1.16 1.08 1.04 0.98 0.91 0.92 0.91 0.90 0.92 0.98 1.04 1.01 0.99 0.99 1.13 1.30 1.30 1.18 1.12 1.03 0.97 0.98 0.98 1.04 1.06 1.06 1.06 1.06
0.46 0.61 0.73 0.75 0.75 0.72 0.76 0.85 0.83 0.81 0.91 0.90 0.92 0.92 0.91 0.90 0.86 0.80 0.83 0.86 0.91 0.87 0.87 0.87 0.89 0.98 1.12 1.20 1.22 1.15 1.15 1.17 1.15 1.18 1.20 1.11 1.02 1.03
0.65 0.81 0.91 0.99 0.99 0.93 0.89 0.88 0.81 0.79 0.78 0.81 0.89 0.90 0.87 0.89 0.88 0.82 0.83 0.86 0.86 0.82 0.79 0.75 0.78 0.86 0.94 0.98 0.92 0.91 0.95 0.99 1.02 1.10 1.18 1.15 1.01 0.93
0.91 0.94 0.97 1.02 1.06 0.99 0.88 0.80 0.69 0.64 0.67 0.73 0.76 0.77 0.80 0.82 0.86 0.85 0.84 0.82 0.78 0.75 0.73 0.71 0.75 0.83 0.92 0.88 0.76 0.69 0.78 0.86 0.91 0.97 1.02 0.99 0.88 0.84
0.94 0.97 1.03 1.02 0.98 0.87 0.73 0.64 0.55 0.53 0.57 0.60 0.59 0.58 0.64 0.70 0.74 0.78 0.80 0.78 0.74 0.71 0.72 0.71 0.76 0.84 0.92 0.90 0.79 0.67 0.69 0.78 0.83 0.88 0.89 0.92 0.89 0.91
0.63 0.67 0.71 0.72 0.67 0.60 0.54 0.51 0.47 0.45 0.47 0.49 0.52 0.53 0.58 0.59 0.60 0.65 0.73 0.80 0.80 0.77 0.75 0.70 0.70 0.79 0.82 0.89 0.84 0.68 0.61 0.71 0.81 0.82 0.83 0.92 0.94 0.92
0.42 0.44 0.45 0.42 0.41 0.42 0.43 0.44 0.45 0.45 0.47 0.50 0.53 0.54 0.59 0.63 0.60 0.60 0.65 0.71 0.74 0.76 0.75 0.74 0.76 0.81 0.84 0.88 0.81 0.69 0.60 0.59 0.71 0.88 0.90 0.88 0.85 0.81
0.37 0.38 0.37 0.36 0.36 0.38 0.43 0.46 0.49 0.49 0.48 0.51 0.55 0.55 0.57 0.61 0.63 0.65 0.67 0.70 0.73 0.74 0.75 0.74 0.78 0.83 0.83 0.81 0.77 0.70 0.64 0.60 0.61 0.70 0.81 0.93 0.85 0.70